| time (UTC) | temp F | wind direction | speed knots | gust knots | rain 1hr in | rain 24hr in | rain mn in | humidity % | barometer mb |
| 20260510043758 | 54 | 195 | 0.0 | 0.0 | 0.00 | 0.00 | 0.00 | 67 | 1012.1 |
| 20260510043254 | 54 | 195 | 0.0 | 0.0 | 0.00 | 0.00 | 0.00 | 67 | 1012.3 |
| 20260510042752 | 54 | 195 | 0.0 | 0.0 | 0.00 | 0.00 | 0.00 | 66 | 1012.3 |
| 20260510042247 | 55 | 195 | 0.0 | 0.0 | 0.00 | 0.00 | 0.00 | 65 | 1012.1 |
| 20260510041745 | 55 | 195 | 0.0 | 0.9 | 0.00 | 0.00 | 0.00 | 64 | 1012.2 |
| 20260510041242 | 56 | 196 | 0.0 | 0.0 | 0.00 | 0.00 | 0.00 | 62 | 1012.0 |
| 20260510040739 | 56 | 196 | 0.9 | 1.7 | 0.00 | 0.00 | 0.00 | 62 | 1011.9 |
| 20260510040236 | 56 | 196 | 0.0 | 0.0 | 0.00 | 0.00 | 0.00 | 61 | 1012.3 |
| 20260510035730 | 57 | 197 | 0.9 | 1.7 | 0.00 | 0.00 | 0.00 | 60 | 1011.9 |
| 20260510035227 | 57 | 196 | 0.9 | 1.7 | 0.00 | 0.00 | 0.00 | 59 | 1012.0 |
| 20260510034722 | 57 | 196 | 1.7 | 1.7 | 0.00 | 0.00 | 0.00 | 58 | 1012.2 |
| 20260510034221 | 58 | 196 | 1.7 | 1.7 | 0.00 | 0.00 | 0.00 | 58 | 1012.1 |
| 20260510033716 | 57 | 195 | 0.9 | 1.7 | 0.00 | 0.00 | 0.00 | 59 | 1012.4 |
| 20260510033215 | 58 | 194 | 1.7 | 1.7 | 0.00 | 0.00 | 0.00 | 58 | 1012.1 |
| 20260510032710 | 59 | 197 | 0.9 | 0.9 | 0.00 | 0.00 | 0.00 | 55 | 1011.9 |
| 20260510032207 | 59 | 200 | 1.7 | 1.7 | 0.00 | 0.00 | 0.00 | 55 | 1011.9 |
| 20260510031701 | 59 | 198 | 0.9 | 0.9 | 0.00 | 0.00 | 0.00 | 56 | 1011.9 |
| 20260510031159 | 59 | 200 | 0.0 | 0.9 | 0.00 | 0.00 | 0.00 | 55 | 1011.9 |
| 20260510030658 | 58 | 218 | 2.6 | 2.6 | 0.00 | 0.00 | 0.00 | 56 | 1011.9 |
| 20260510030156 | 58 | 199 | 0.9 | 0.9 | 0.00 | 0.00 | 0.00 | 56 | 1011.9 |
| 20260510025653 | 58 | 198 | 0.0 | 0.9 | 0.00 | 0.00 | 0.00 | 57 | 1011.9 |
| 20260510025150 | 58 | 207 | 2.6 | 2.6 | 0.00 | 0.00 | 0.00 | 57 | 1011.7 |
| 20260510024647 | 57 | 220 | 2.6 | 2.6 | 0.00 | 0.00 | 0.00 | 59 | 1011.6 |
| 20260510024143 | 58 | 188 | 1.7 | 1.7 | 0.00 | 0.00 | 0.00 | 59 | 1011.5 |
| 20260510023639 | 58 | 163 | 0.0 | 0.0 | 0.00 | 0.00 | 0.00 | 57 | 1011.4 |
| 20260510023137 | 58 | 163 | 0.0 | 0.0 | 0.00 | 0.00 | 0.00 | 60 | 1011.3 |
| 20260510022637 | 59 | 163 | 0.0 | 0.0 | 0.00 | 0.00 | 0.00 | 59 | 1011.3 |
| 20260510022132 | 59 | 162 | 0.0 | 0.0 | 0.00 | 0.00 | 0.00 | 57 | 1011.1 |
| 20260510021627 | 60 | 187 | 0.0 | 0.0 | 0.00 | 0.00 | 0.00 | 55 | 1011.4 |
| 20260510021125 | 60 | 192 | 0.0 | 0.0 | 0.00 | 0.00 | 0.00 | 53 | 1011.3 |
| 20260510020619 | 60 | 194 | 0.0 | 0.0 | 0.00 | 0.00 | 0.00 | 53 | 1011.2 |
| 20260510020115 | 59 | 195 | 0.9 | 0.9 | 0.00 | 0.00 | 0.00 | 56 | 1010.6 |
| 20260510015611 | 58 | 192 | 0.9 | 0.9 | 0.00 | 0.00 | 0.00 | 60 | 1010.7 |
| 20260510015108 | 59 | 195 | 0.9 | 0.9 | 0.00 | 0.00 | 0.00 | 60 | 1010.7 |
| 20260510014604 | 58 | 207 | 0.9 | 1.7 | 0.00 | 0.00 | 0.00 | 62 | 1010.6 |
| 20260510014102 | 59 | 204 | 0.9 | 0.9 | 0.00 | 0.00 | 0.00 | 66 | 1010.6 |
| 20260510013602 | 60 | 200 | 0.9 | 1.7 | 0.00 | 0.00 | 0.00 | 63 | 1010.4 |
| 20260510013058 | 61 | 197 | 0.0 | 0.0 | 0.00 | 0.00 | 0.00 | 63 | 1010.4 |
| 20260510012557 | 61 | 200 | 0.0 | 0.0 | 0.00 | 0.00 | 0.00 | 60 | 1010.3 |
| 20260510012054 | 62 | 202 | 0.9 | 0.9 | 0.00 | 0.00 | 0.00 | 61 | 1010.2 |
| 20260510011553 | 62 | 202 | 1.7 | 1.7 | 0.00 | 0.00 | 0.00 | 62 | 1010.1 |
| 20260510011049 | 62 | 216 | 1.7 | 2.6 | 0.00 | 0.00 | 0.00 | 63 | 1010.1 |
| 20260510010546 | 63 | 212 | 1.7 | 1.7 | 0.00 | 0.00 | 0.00 | 63 | 1010.0 |
| 20260510010043 | 62 | 206 | 1.7 | 1.7 | 0.00 | 0.00 | 0.00 | 62 | 1009.8 |
| 20260510005539 | 63 | 206 | 0.9 | 0.9 | 0.00 | 0.00 | 0.00 | 62 | 1009.9 |
| 20260510005037 | 64 | 206 | 0.9 | 0.9 | 0.00 | 0.00 | 0.00 | 59 | 1009.8 |
| 20260510004534 | 64 | 206 | 0.9 | 0.9 | 0.00 | 0.00 | 0.00 | 59 | 1009.6 |
| 20260510004032 | 65 | 206 | 0.9 | 0.9 | 0.00 | 0.00 | 0.00 | 59 | 1009.7 |
| 20260510003528 | 65 | 206 | 0.9 | 1.7 | 0.00 | 0.00 | 0.00 | 58 | 1009.5 |
| 20260510003024 | 65 | 205 | 0.9 | 0.9 | 0.00 | 0.00 | 0.00 | 57 | 1009.4 |
| 20260510002519 | 66 | 203 | 0.9 | 0.9 | 0.00 | 0.00 | 0.00 | 57 | 1009.3 |
| 20260510002017 | 66 | 207 | 1.7 | 2.6 | 0.00 | 0.00 | 0.00 | 56 | 1009.4 |
| 20260510001514 | 67 | 211 | 3.5 | 3.5 | 0.00 | 0.00 | 0.00 | 55 | 1009.1 |
| 20260510001012 | 67 | 205 | 3.5 | 3.5 | 0.00 | 0.00 | 0.00 | 54 | 1009.1 |
| 20260510000512 | 67 | 203 | 2.6 | 2.6 | 0.00 | 0.00 | 0.00 | 54 | 1009.0 |
| 20260510000010 | 67 | 200 | 3.5 | 5.2 | 0.00 | 0.00 | 0.00 | 54 | 1008.9 |
| 20260509235506 | 68 | 197 | 3.5 | 3.5 | 0.00 | 0.00 | 0.00 | 53 | 1008.7 |
| 20260509235002 | 68 | 186 | 3.5 | 3.5 | 0.00 | 0.00 | 0.00 | 52 | 1008.9 |
| 20260509234459 | 68 | 206 | 3.5 | 3.5 | 0.00 | 0.00 | 0.00 | 52 | 1008.8 |
| 20260509233957 | 69 | 208 | 3.5 | 3.5 | 0.00 | 0.00 | 0.00 | 51 | 1008.8 |
| 20260509233454 | 69 | 198 | 4.3 | 5.2 | 0.00 | 0.00 | 0.00 | 50 | 1008.8 |
| 20260509232950 | 69 | 207 | 5.2 | 6.1 | 0.00 | 0.00 | 0.00 | 50 | 1008.7 |
| 20260509232448 | 69 | 196 | 3.5 | 3.5 | 0.00 | 0.00 | 0.00 | 51 | 1009.0 |
| 20260509231944 | 69 | 197 | 4.3 | 5.2 | 0.00 | 0.00 | 0.00 | 51 | 1008.8 |
| 20260509231440 | 69 | 204 | 5.2 | 6.1 | 0.00 | 0.00 | 0.00 | 50 | 1008.8 |
| 20260509230939 | 69 | 196 | 5.2 | 7.0 | 0.00 | 0.00 | 0.00 | 51 | 1008.8 |
| 20260509230435 | 70 | 212 | 5.2 | 7.0 | 0.00 | 0.00 | 0.00 | 49 | 1008.6 |
| 20260509225931 | 71 | 168 | 7.0 | 7.8 | 0.00 | 0.00 | 0.00 | 50 | 1008.6 |
| 20260509225428 | 70 | 194 | 5.2 | 6.1 | 0.00 | 0.00 | 0.00 | 50 | 1008.6 |
| 20260509224924 | 71 | 207 | 5.2 | 7.0 | 0.00 | 0.00 | 0.00 | 48 | 1008.7 |
| 20260509224419 | 71 | 203 | 9.6 | 9.6 | 0.00 | 0.00 | 0.00 | 47 | 1008.6 |
| 20260509223917 | 71 | 177 | 8.7 | 11.3 | 0.00 | 0.00 | 0.00 | 48 | 1008.4 |
| 20260509223414 | 71 | 176 | 6.1 | 7.0 | 0.00 | 0.00 | 0.00 | 48 | 1008.7 |
| 20260509222911 | 71 | 197 | 7.8 | 8.7 | 0.00 | 0.00 | 0.00 | 48 | 1008.6 |
| 20260509222406 | 70 | 194 | 7.8 | 8.7 | 0.00 | 0.00 | 0.00 | 48 | 1008.8 |
| 20260509221901 | 70 | 201 | 7.0 | 7.8 | 0.00 | 0.00 | 0.00 | 48 | 1008.6 |
| 20260509221359 | 70 | 191 | 4.3 | 5.2 | 0.00 | 0.00 | 0.00 | 48 | 1008.8 |
| 20260509220855 | 70 | 213 | 7.0 | 7.8 | 0.00 | 0.00 | 0.00 | 47 | 1008.6 |
| 20260509220350 | 70 | 167 | 7.8 | 9.6 | 0.00 | 0.00 | 0.00 | 47 | 1008.7 |
| 20260509215846 | 71 | 197 | 6.1 | 8.7 | 0.00 | 0.00 | 0.00 | 47 | 1008.6 |
| 20260509215343 | 71 | 219 | 8.7 | 8.7 | 0.00 | 0.00 | 0.00 | 46 | 1008.6 |
| 20260509214840 | 71 | 196 | 4.3 | 6.1 | 0.00 | 0.00 | 0.00 | 49 | 1008.5 |
| 20260509214337 | 71 | 207 | 10.4 | 13.0 | 0.00 | 0.00 | 0.00 | 46 | 1008.5 |
| 20260509213834 | 71 | 191 | 7.0 | 8.7 | 0.00 | 0.00 | 0.00 | 45 | 1008.6 |
| 20260509213329 | 71 | 180 | 5.2 | 6.1 | 0.00 | 0.00 | 0.00 | 47 | 1008.4 |
| 20260509212827 | 71 | 221 | 6.1 | 7.0 | 0.00 | 0.00 | 0.00 | 48 | 1008.5 |
| 20260509212325 | 71 | 212 | 8.7 | 9.6 | 0.00 | 0.00 | 0.00 | 47 | 1008.5 |
| 20260509211821 | 71 | 197 | 6.1 | 7.0 | 0.00 | 0.00 | 0.00 | 47 | 1008.5 |
| 20260509211317 | 71 | 186 | 7.8 | 8.7 | 0.00 | 0.00 | 0.00 | 47 | 1008.5 |
| 20260509210814 | 71 | 210 | 7.8 | 9.6 | 0.00 | 0.00 | 0.00 | 46 | 1008.3 |
| 20260509210311 | 71 | 212 | 8.7 | 9.6 | 0.00 | 0.00 | 0.00 | 45 | 1008.4 |
| 20260509205810 | 71 | 200 | 8.7 | 9.6 | 0.00 | 0.00 | 0.00 | 47 | 1008.4 |
| 20260509205307 | 71 | 180 | 9.6 | 11.3 | 0.00 | 0.00 | 0.00 | 46 | 1008.6 |
| 20260509204801 | 71 | 192 | 6.1 | 7.0 | 0.00 | 0.00 | 0.00 | 45 | 1008.2 |
| 20260509204258 | 70 | 182 | 8.7 | 9.6 | 0.00 | 0.00 | 0.00 | 46 | 1008.4 |
| 20260509203754 | 70 | 189 | 4.3 | 5.2 | 0.00 | 0.00 | 0.00 | 48 | 1008.2 |
| 20260509203252 | 71 | 201 | 5.2 | 6.1 | 0.00 | 0.00 | 0.00 | 45 | 1008.2 |
| 20260509202748 | 72 | 219 | 11.3 | 13.0 | 0.00 | 0.00 | 0.00 | 44 | 1008.2 |
| 20260509202244 | 72 | 190 | 3.5 | 3.5 | 0.00 | 0.00 | 0.00 | 46 | 1008.0 |
| 20260509201744 | 72 | 197 | 6.1 | 7.8 | 0.00 | 0.00 | 0.00 | 44 | 1008.2 |
| 20260509201241 | 71 | 206 | 3.5 | 5.2 | 0.00 | 0.00 | 0.00 | 46 | 1008.0 |
| 20260509200738 | 71 | 248 | 6.1 | 7.0 | 0.00 | 0.00 | 0.00 | 42 | 1008.2 |
| 20260509200238 | 72 | 189 | 7.8 | 9.6 | 0.00 | 0.00 | 0.00 | 46 | 1008.2 |
| 20260509195734 | 74 | 205 | 6.1 | 7.8 | 0.00 | 0.00 | 0.00 | 44 | 1008.0 |
| 20260509195229 | 74 | 196 | 6.1 | 7.8 | 0.00 | 0.00 | 0.00 | 46 | 1008.2 |
| 20260509194724 | 73 | 158 | 7.0 | 7.0 | 0.00 | 0.00 | 0.00 | 47 | 1008.2 |
| 20260509194221 | 73 | 195 | 7.0 | 8.7 | 0.00 | 0.00 | 0.00 | 45 | 1008.2 |
| 20260509193718 | 72 | 171 | 7.8 | 11.3 | 0.00 | 0.00 | 0.00 | 46 | 1008.3 |
| 20260509193217 | 72 | 183 | 5.2 | 7.0 | 0.00 | 0.00 | 0.00 | 46 | 1008.4 |
| 20260509192714 | 71 | 210 | 6.1 | 7.8 | 0.00 | 0.00 | 0.00 | 49 | 1008.5 |
| 20260509192209 | 71 | 177 | 7.8 | 7.8 | 0.00 | 0.00 | 0.00 | 46 | 1008.6 |
| 20260509191705 | 70 | 199 | 8.7 | 9.6 | 0.00 | 0.00 | 0.00 | 48 | 1008.7 |
| 20260509191201 | 70 | 198 | 5.2 | 8.7 | 0.00 | 0.00 | 0.00 | 49 | 1008.8 |
| 20260509190657 | 70 | 214 | 7.8 | 8.7 | 0.00 | 0.00 | 0.00 | 46 | 1008.9 |
| 20260509190155 | 70 | 189 | 7.8 | 8.7 | 0.00 | 0.00 | 0.00 | 48 | 1008.9 |
| 20260509185652 | 70 | 217 | 2.6 | 2.6 | 0.00 | 0.00 | 0.00 | 47 | 1008.8 |
| 20260509185148 | 71 | 222 | 7.0 | 7.8 | 0.00 | 0.00 | 0.00 | 45 | 1008.9 |
| 20260509184646 | 71 | 179 | 7.8 | 8.7 | 0.00 | 0.00 | 0.00 | 46 | 1008.8 |
| 20260509184142 | 69 | 200 | 7.0 | 7.8 | 0.00 | 0.00 | 0.00 | 46 | 1008.8 |
| 20260509183639 | 69 | 177 | 5.2 | 6.1 | 0.00 | 0.00 | 0.00 | 47 | 1009.1 |
| 20260509183134 | 70 | 209 | 5.2 | 7.0 | 0.00 | 0.00 | 0.00 | 47 | 1009.0 |
| 20260509182630 | 71 | 205 | 6.1 | 7.0 | 0.00 | 0.00 | 0.00 | 48 | 1008.9 |
| 20260509182127 | 71 | 209 | 5.2 | 6.1 | 0.00 | 0.00 | 0.00 | 44 | 1009.0 |
| 20260509181625 | 72 | 163 | 7.0 | 8.7 | 0.00 | 0.00 | 0.00 | 47 | 1008.8 |
| 20260509181123 | 72 | 236 | 5.2 | 7.8 | 0.00 | 0.00 | 0.00 | 47 | 1009.2 |
| 20260509180619 | 71 | 205 | 7.0 | 8.7 | 0.00 | 0.00 | 0.00 | 47 | 1009.2 |
| 20260509180116 | 70 | 159 | 8.7 | 11.3 | 0.00 | 0.00 | 0.00 | 47 | 1009.2 |
| 20260509175611 | 69 | 215 | 3.5 | 3.5 | 0.00 | 0.00 | 0.00 | 52 | 1009.6 |
| 20260509175109 | 68 | 218 | 3.5 | 3.5 | 0.00 | 0.00 | 0.00 | 54 | 1009.5 |
| 20260509174605 | 68 | 183 | 4.3 | 5.2 | 0.00 | 0.00 | 0.00 | 51 | 1009.8 |
| 20260509174100 | 69 | 180 | 3.5 | 3.5 | 0.00 | 0.00 | 0.00 | 50 | 1009.6 |
| 20260509173555 | 69 | 241 | 4.3 | 5.2 | 0.00 | 0.00 | 0.00 | 47 | 1009.7 |
| 20260509173051 | 69 | 184 | 6.1 | 7.8 | 0.00 | 0.00 | 0.00 | 51 | 1009.7 |
| 20260509172549 | 70 | 196 | 8.7 | 9.6 | 0.00 | 0.00 | 0.00 | 50 | 1009.8 |
| 20260509172044 | 70 | 162 | 7.8 | 8.7 | 0.00 | 0.00 | 0.00 | 50 | 1009.9 |
| 20260509171540 | 70 | 175 | 8.7 | 9.6 | 0.00 | 0.00 | 0.00 | 49 | 1009.9 |
| 20260509171037 | 70 | 226 | 7.0 | 8.7 | 0.00 | 0.00 | 0.00 | 49 | 1010.1 |
| 20260509170533 | 69 | 190 | 4.3 | 5.2 | 0.00 | 0.00 | 0.00 | 50 | 1010.2 |
| 20260509170029 | 69 | 208 | 3.5 | 3.5 | 0.00 | 0.00 | 0.00 | 51 | 1010.2 |
| 20260509165527 | 68 | 166 | 3.5 | 3.5 | 0.00 | 0.00 | 0.00 | 53 | 1010.1 |
| 20260509165023 | 68 | 163 | 4.3 | 7.0 | 0.00 | 0.00 | 0.00 | 54 | 1010.0 |
| 20260509164520 | 67 | 194 | 5.2 | 7.0 | 0.00 | 0.00 | 0.00 | 52 | 1010.2 |
| 20260509164016 | 67 | 190 | 5.2 | 7.0 | 0.00 | 0.00 | 0.00 | 51 | 1010.1 |
| 20260509163514 | 67 | 187 | 7.0 | 7.8 | 0.00 | 0.00 | 0.00 | 52 | 1010.1 |
| 20260509163014 | 68 | 184 | 7.8 | 8.7 | 0.00 | 0.00 | 0.00 | 51 | 1010.2 |
| 20260509162512 | 68 | 200 | 7.8 | 9.6 | 0.00 | 0.00 | 0.00 | 52 | 1010.1 |
| 20260509162008 | 68 | 215 | 9.6 | 11.3 | 0.00 | 0.00 | 0.00 | 50 | 1010.0 |
| 20260509161504 | 69 | 192 | 7.0 | 8.7 | 0.00 | 0.00 | 0.00 | 51 | 1010.1 |
| 20260509160959 | 68 | 205 | 7.0 | 8.7 | 0.00 | 0.00 | 0.00 | 51 | 1010.0 |
| 20260509160455 | 68 | 212 | 6.1 | 7.8 | 0.00 | 0.00 | 0.00 | 50 | 1009.9 |
| 20260509155956 | 68 | 229 | 7.8 | 9.6 | 0.00 | 0.00 | 0.00 | 51 | 1010.1 |
| 20260509155452 | 69 | 211 | 7.0 | 7.8 | 0.00 | 0.00 | 0.00 | 48 | 1010.1 |
| 20260509154949 | 68 | 219 | 7.0 | 8.7 | 0.00 | 0.00 | 0.00 | 50 | 1010.1 |
| 20260509154445 | 68 | 174 | 7.8 | 8.7 | 0.00 | 0.00 | 0.00 | 52 | 1010.2 |
| 20260509153943 | 67 | 188 | 7.0 | 7.8 | 0.00 | 0.00 | 0.00 | 54 | 1010.0 |
| 20260509153439 | 67 | 198 | 7.8 | 8.7 | 0.00 | 0.00 | 0.00 | 51 | 1010.2 |
| 20260509152936 | 67 | 202 | 4.3 | 5.2 | 0.00 | 0.00 | 0.00 | 54 | 1010.2 |
| 20260509152432 | 67 | 204 | 5.2 | 7.0 | 0.00 | 0.00 | 0.00 | 53 | 1010.2 |
| 20260509151929 | 67 | 207 | 7.8 | 9.6 | 0.00 | 0.00 | 0.00 | 54 | 1010.1 |
| 20260509151425 | 68 | 194 | 9.6 | 12.2 | 0.00 | 0.00 | 0.00 | 50 | 1010.2 |
| 20260509150924 | 68 | 206 | 6.1 | 7.8 | 0.00 | 0.00 | 0.00 | 53 | 1010.6 |
| 20260509150421 | 66 | 240 | 7.0 | 7.8 | 0.00 | 0.00 | 0.00 | 53 | 1010.2 |
| 20260509145919 | 66 | 211 | 5.2 | 7.0 | 0.00 | 0.00 | 0.00 | 56 | 1010.4 |
| 20260509145419 | 64 | 180 | 3.5 | 3.5 | 0.00 | 0.00 | 0.00 | 60 | 1010.2 |
| 20260509144915 | 64 | 192 | 5.2 | 6.1 | 0.00 | 0.00 | 0.00 | 56 | 1010.4 |
| 20260509144412 | 64 | 180 | 7.0 | 7.8 | 0.00 | 0.00 | 0.00 | 56 | 1010.3 |
| 20260509143909 | 65 | 210 | 4.3 | 5.2 | 0.00 | 0.00 | 0.00 | 55 | 1010.3 |
| 20260509143406 | 65 | 190 | 5.2 | 7.0 | 0.00 | 0.00 | 0.00 | 55 | 1010.3 |
| 20260509142902 | 65 | 200 | 3.5 | 6.1 | 0.00 | 0.00 | 0.00 | 57 | 1010.3 |
| 20260509142359 | 65 | 204 | 1.7 | 1.7 | 0.00 | 0.00 | 0.00 | 53 | 1010.1 |
| 20260509141854 | 64 | 210 | 4.3 | 7.0 | 0.00 | 0.00 | 0.00 | 63 | 1010.0 |
| 20260509141352 | 64 | 170 | 6.1 | 7.0 | 0.00 | 0.00 | 0.00 | 57 | 1010.2 |
| 20260509140848 | 63 | 172 | 4.3 | 7.0 | 0.00 | 0.00 | 0.00 | 59 | 1010.4 |
| 20260509140345 | 63 | 166 | 5.2 | 6.1 | 0.00 | 0.00 | 0.00 | 59 | 1010.6 |
| 20260509135843 | 62 | 165 | 5.2 | 7.8 | 0.00 | 0.00 | 0.00 | 61 | 1010.7 |
| 20260509135340 | 62 | 191 | 0.9 | 1.7 | 0.00 | 0.00 | 0.00 | 61 | 1010.7 |
| 20260509134838 | 61 | 218 | 4.3 | 5.2 | 0.00 | 0.00 | 0.00 | 61 | 1010.9 |
| 20260509134335 | 61 | 210 | 4.3 | 6.1 | 0.00 | 0.00 | 0.00 | 62 | 1011.0 |
| 20260509133831 | 61 | 192 | 2.6 | 2.6 | 0.00 | 0.00 | 0.00 | 63 | 1011.1 |
| 20260509133328 | 60 | 215 | 5.2 | 6.1 | 0.00 | 0.00 | 0.00 | 64 | 1011.1 |
| 20260509132827 | 60 | 197 | 5.2 | 6.1 | 0.00 | 0.00 | 0.00 | 61 | 1011.2 |
| 20260509132325 | 60 | 216 | 5.2 | 7.0 | 0.00 | 0.00 | 0.00 | 63 | 1011.2 |
| 20260509131822 | 60 | 196 | 3.5 | 3.5 | 0.00 | 0.00 | 0.00 | 63 | 1011.4 |
| 20260509131318 | 60 | 208 | 9.6 | 11.3 | 0.00 | 0.00 | 0.00 | 63 | 1011.4 |
| 20260509130815 | 59 | 205 | 5.2 | 7.0 | 0.00 | 0.00 | 0.00 | 62 | 1011.4 |
| 20260509130311 | 59 | 196 | 5.2 | 6.1 | 0.00 | 0.00 | 0.00 | 63 | 1011.3 |
| 20260509125807 | 59 | 174 | 6.1 | 7.0 | 0.00 | 0.00 | 0.00 | 62 | 1011.4 |
| 20260509125307 | 58 | 214 | 3.5 | 5.2 | 0.00 | 0.00 | 0.00 | 66 | 1011.2 |
| 20260509124800 | 58 | 174 | 7.0 | 7.0 | 0.00 | 0.00 | 0.00 | 65 | 1011.4 |
| 20260509124257 | 57 | 186 | 7.0 | 7.8 | 0.00 | 0.00 | 0.00 | 66 | 1011.3 |
| 20260509123755 | 57 | 192 | 5.2 | 6.1 | 0.00 | 0.00 | 0.00 | 65 | 1011.3 |
| 20260509123252 | 57 | 182 | 6.1 | 7.0 | 0.00 | 0.00 | 0.00 | 64 | 1011.4 |
| 20260509122748 | 57 | 172 | 4.3 | 5.2 | 0.00 | 0.00 | 0.00 | 65 | 1011.5 |
| 20260509122245 | 57 | 190 | 3.5 | 3.5 | 0.00 | 0.00 | 0.00 | 63 | 1011.4 |
| 20260509121742 | 57 | 195 | 3.5 | 3.5 | 0.00 | 0.00 | 0.00 | 65 | 1011.4 |
| 20260509121239 | 57 | 183 | 2.6 | 2.6 | 0.00 | 0.00 | 0.00 | 65 | 1011.4 |
| 20260509120737 | 56 | 197 | 2.6 | 2.6 | 0.00 | 0.00 | 0.00 | 64 | 1011.5 |
| 20260509120234 | 56 | 198 | 2.6 | 2.6 | 0.00 | 0.00 | 0.00 | 64 | 1011.5 |
| 20260509115733 | 55 | 182 | 2.6 | 2.6 | 0.00 | 0.00 | 0.00 | 66 | 1011.4 |
| 20260509115229 | 54 | 201 | 2.6 | 2.6 | 0.00 | 0.00 | 0.00 | 70 | 1011.5 |
| 20260509114728 | 54 | 200 | 1.7 | 1.7 | 0.00 | 0.00 | 0.00 | 71 | 1011.5 |
| 20260509114226 | 53 | 197 | 1.7 | 2.6 | 0.00 | 0.00 | 0.00 | 69 | 1011.4 |
| 20260509113724 | 52 | 202 | 1.7 | 1.7 | 0.00 | 0.00 | 0.00 | 72 | 1011.3 |
| 20260509113221 | 52 | 202 | 0.9 | 0.9 | 0.00 | 0.00 | 0.00 | 74 | 1011.3 |
| 20260509112718 | 52 | 202 | 0.9 | 0.9 | 0.00 | 0.00 | 0.00 | 78 | 1011.4 |
| 20260509112215 | 53 | 202 | 0.9 | 0.9 | 0.00 | 0.00 | 0.00 | 73 | 1011.4 |
| 20260509111712 | 52 | 202 | 1.7 | 1.7 | 0.00 | 0.00 | 0.00 | 68 | 1011.5 |
| 20260509111209 | 52 | 216 | 0.9 | 1.7 | 0.00 | 0.00 | 0.00 | 68 | 1011.4 |
| 20260509110706 | 52 | 216 | 0.9 | 1.7 | 0.00 | 0.00 | 0.00 | 68 | 1011.4 |
| 20260509110203 | 52 | 209 | 0.9 | 0.9 | 0.00 | 0.00 | 0.00 | 68 | 1011.4 |
| 20260509105701 | 51 | 202 | 0.0 | 0.0 | 0.00 | 0.00 | 0.00 | 70 | 1011.2 |
| 20260509105158 | 51 | 202 | 0.9 | 0.9 | 0.00 | 0.00 | 0.00 | 70 | 1011.3 |
| 20260509104655 | 51 | 198 | 0.0 | 0.0 | 0.00 | 0.00 | 0.00 | 68 | 1011.3 |
| 20260509104152 | 51 | 198 | 0.0 | 0.0 | 0.00 | 0.00 | 0.00 | 68 | 1011.3 |
| 20260509103650 | 50 | 196 | 0.0 | 0.0 | 0.00 | 0.00 | 0.00 | 70 | 1011.2 |
| 20260509103147 | 50 | 198 | 0.0 | 0.0 | 0.00 | 0.00 | 0.00 | 70 | 1011.5 |
| 20260509102645 | 50 | 198 | 0.0 | 0.0 | 0.00 | 0.00 | 0.00 | 68 | 1011.3 |
| 20260509102142 | 50 | 198 | 0.0 | 0.0 | 0.00 | 0.00 | 0.00 | 68 | 1011.5 |
| 20260509101638 | 50 | 196 | 0.0 | 0.0 | 0.00 | 0.00 | 0.00 | 68 | 1011.3 |
| 20260509101135 | 50 | 196 | 0.0 | 0.0 | 0.00 | 0.00 | 0.00 | 68 | 1011.3 |
| 20260509100632 | 50 | 200 | 0.0 | 0.0 | 0.00 | 0.00 | 0.00 | 71 | 1011.4 |
| 20260509100129 | 50 | 202 | 0.0 | 0.0 | 0.00 | 0.00 | 0.00 | 69 | 1011.5 |
| 20260509095626 | 49 | 190 | 0.0 | 0.0 | 0.00 | 0.00 | 0.00 | 71 | 1011.5 |
| 20260509095123 | 50 | 202 | 0.0 | 0.0 | 0.00 | 0.00 | 0.00 | 70 | 1011.4 |
| 20260509094619 | 49 | 195 | 0.0 | 0.0 | 0.00 | 0.00 | 0.00 | 69 | 1011.3 |
| 20260509094117 | 49 | 200 | 0.0 | 0.9 | 0.00 | 0.00 | 0.00 | 71 | 1011.3 |
| 20260509093615 | 49 | 196 | 0.0 | 0.0 | 0.00 | 0.00 | 0.00 | 70 | 1011.5 |
| 20260509093112 | 48 | 185 | 0.0 | 0.0 | 0.00 | 0.00 | 0.00 | 68 | 1011.6 |
| 20260509092609 | 48 | 185 | 0.0 | 0.0 | 0.00 | 0.00 | 0.00 | 71 | 1011.5 |
| 20260509092108 | 49 | 185 | 0.0 | 0.0 | 0.00 | 0.00 | 0.00 | 70 | 1011.7 |
| 20260509091605 | 49 | 185 | 0.0 | 0.0 | 0.00 | 0.00 | 0.00 | 68 | 1011.6 |
| 20260509091101 | 49 | 185 | 0.0 | 0.0 | 0.00 | 0.00 | 0.00 | 67 | 1011.7 |
| 20260509090559 | 49 | 196 | 0.0 | 0.0 | 0.00 | 0.00 | 0.00 | 68 | 1011.7 |
| 20260509090057 | 50 | 198 | 0.0 | 0.0 | 0.00 | 0.00 | 0.00 | 67 | 1011.7 |
| 20260509085554 | 50 | 193 | 0.9 | 0.9 | 0.00 | 0.00 | 0.00 | 67 | 1011.5 |
| 20260509085050 | 50 | 200 | 0.0 | 0.0 | 0.00 | 0.00 | 0.00 | 66 | 1011.5 |
| 20260509084547 | 49 | 200 | 0.0 | 0.9 | 0.00 | 0.00 | 0.00 | 66 | 1011.6 |
| 20260509084044 | 50 | 200 | 0.0 | 0.0 | 0.00 | 0.00 | 0.00 | 67 | 1011.9 |
| 20260509083542 | 50 | 200 | 0.0 | 0.0 | 0.00 | 0.00 | 0.00 | 65 | 1011.6 |
| 20260509083038 | 50 | 200 | 0.0 | 0.0 | 0.00 | 0.00 | 0.00 | 66 | 1011.6 |
| 20260509082536 | 50 | 200 | 0.0 | 0.0 | 0.00 | 0.00 | 0.00 | 62 | 1011.7 |
| 20260509082032 | 51 | 200 | 0.0 | 0.0 | 0.00 | 0.00 | 0.00 | 65 | 1011.6 |
| 20260509081530 | 51 | 200 | 0.0 | 0.0 | 0.00 | 0.00 | 0.00 | 64 | 1011.5 |
| 20260509081026 | 51 | 200 | 0.0 | 0.9 | 0.00 | 0.00 | 0.00 | 62 | 1011.6 |
| 20260509080524 | 51 | 200 | 0.0 | 0.0 | 0.00 | 0.00 | 0.00 | 62 | 1011.6 |
| 20260509080022 | 51 | 200 | 0.0 | 0.0 | 0.00 | 0.00 | 0.00 | 62 | 1011.6 |
| 20260509075519 | 51 | 200 | 0.0 | 0.0 | 0.00 | 0.00 | 0.00 | 64 | 1011.6 |
| 20260509075017 | 51 | 200 | 0.0 | 0.0 | 0.00 | 0.00 | 0.00 | 64 | 1011.7 |
| 20260509074514 | 52 | 200 | 0.0 | 0.0 | 0.00 | 0.00 | 0.00 | 62 | 1011.8 |
| 20260509074010 | 52 | 201 | 0.0 | 0.0 | 0.00 | 0.00 | 0.00 | 59 | 1012.0 |
| 20260509073507 | 52 | 200 | 0.0 | 0.9 | 0.00 | 0.00 | 0.00 | 60 | 1011.9 |
| 20260509073003 | 52 | 199 | 0.0 | 0.0 | 0.00 | 0.00 | 0.00 | 60 | 1012.1 |
| 20260509072500 | 51 | 198 | 0.9 | 0.9 | 0.00 | 0.00 | 0.00 | 59 | 1012.1 |
| 20260509071957 | 52 | 198 | 0.0 | 0.0 | 0.00 | 0.00 | 0.00 | 61 | 1012.0 |
| 20260509071453 | 52 | 198 | 0.0 | 0.0 | 0.00 | 0.00 | 0.00 | 59 | 1012.1 |
| 20260509070951 | 53 | 197 | 0.0 | 0.0 | 0.00 | 0.00 | 0.00 | 56 | 1012.1 |
| 20260509070448 | 53 | 197 | 0.0 | 0.0 | 0.00 | 0.00 | 0.00 | 56 | 1012.4 |
| 20260509065943 | 54 | 197 | 0.0 | 0.0 | 0.00 | 0.00 | 0.00 | 55 | 1012.2 |
| 20260509065439 | 54 | 197 | 0.9 | 0.9 | 0.00 | 0.00 | 0.00 | 55 | 1012.1 |
| 20260509064936 | 54 | 202 | 1.7 | 1.7 | 0.00 | 0.00 | 0.00 | 54 | 1012.3 |
| 20260509064434 | 54 | 182 | 1.7 | 1.7 | 0.00 | 0.00 | 0.00 | 55 | 1012.1 |
| 20260509063932 | 53 | 188 | 3.5 | 3.5 | 0.00 | 0.00 | 0.00 | 55 | 1012.4 |
| 20260509063427 | 53 | 198 | 2.6 | 2.6 | 0.00 | 0.00 | 0.00 | 56 | 1012.2 |
| 20260509062924 | 51 | 175 | 2.6 | 2.6 | 0.00 | 0.00 | 0.00 | 60 | 1012.8 |
| 20260509062422 | 51 | 202 | 0.0 | 0.0 | 0.00 | 0.00 | 0.00 | 62 | 1012.6 |
| 20260509061919 | 51 | 202 | 0.0 | 0.0 | 0.00 | 0.00 | 0.00 | 63 | 1012.5 |
| 20260509061417 | 50 | 202 | 0.0 | 0.0 | 0.00 | 0.00 | 0.00 | 63 | 1012.7 |
| 20260509060913 | 50 | 202 | 0.0 | 0.0 | 0.00 | 0.00 | 0.00 | 63 | 1012.6 |
| 20260509060411 | 51 | 202 | 0.0 | 0.0 | 0.00 | 0.00 | 0.00 | 62 | 1012.5 |
| 20260509055905 | 50 | 202 | 0.9 | 0.9 | 0.00 | 0.00 | 0.00 | 62 | 1012.5 |
| 20260509055401 | 50 | 202 | 0.9 | 0.9 | 0.00 | 0.00 | 0.00 | 63 | 1012.9 |
| 20260509054858 | 50 | 204 | 0.0 | 0.0 | 0.00 | 0.00 | 0.00 | 61 | 1012.7 |
| 20260509054355 | 50 | 204 | 0.0 | 0.0 | 0.00 | 0.00 | 0.00 | 63 | 1013.0 |
| 20260509053853 | 50 | 204 | 0.0 | 0.0 | 0.00 | 0.00 | 0.00 | 62 | 1012.8 |
| 20260509053350 | 50 | 204 | 0.0 | 0.0 | 0.00 | 0.00 | 0.00 | 62 | 1012.8 |
| 20260509052848 | 50 | 206 | 0.0 | 0.0 | 0.00 | 0.00 | 0.00 | 61 | 1012.9 |
| 20260509052345 | 50 | 204 | 0.0 | 0.0 | 0.00 | 0.00 | 0.00 | 62 | 1012.9 |
| 20260509051843 | 50 | 201 | 0.0 | 0.9 | 0.00 | 0.00 | 0.00 | 61 | 1012.9 |
| 20260509051341 | 51 | 204 | 0.0 | 0.0 | 0.00 | 0.00 | 0.00 | 60 | 1012.8 |
| 20260509050837 | 51 | 204 | 0.0 | 0.0 | 0.00 | 0.00 | 0.00 | 59 | 1012.9 |
| 20260509050334 | 52 | 201 | 0.0 | 0.0 | 0.00 | 0.00 | 0.00 | 57 | 1013.0 |
| 20260509045831 | 52 | 202 | 0.9 | 0.9 | 0.00 | 0.00 | 0.00 | 56 | 1012.8 |
| 20260509045328 | 52 | 202 | 0.0 | 0.0 | 0.00 | 0.00 | 0.00 | 56 | 1012.8 |
| 20260509044825 | 52 | 206 | 0.0 | 0.0 | 0.00 | 0.00 | 0.00 | 56 | 1012.8 |
| 20260509044323 | 53 | 205 | 0.9 | 0.9 | 0.00 | 0.00 | 0.00 | 56 | 1012.7 |
| 20260509043819 | 54 | 190 | 0.0 | 0.0 | 0.00 | 0.00 | 0.00 | 52 | 1012.8 |